Zurück zum Katalog

STARLINK-32869

AktivKommunikationVLEO
NORAD 62859·PAYLOAD·🇺🇸 United States

Gestartet Feb 1, 2025 von Vandenberg Space Force Base

Loading…

Nächste Überflüge (nächste 24 Stunden)

TLE

AktuellSource: CelesTrak SupGP

Epoche: Sep 14, 2026, 22:42 UTC

1 62859C 25022F   26257.94631944  .00015059  00000+0  44507-3 0  2572
2 62859  53.1602 327.6474 0001164  85.9226  25.9894 15.34373457    16

Verfolge STARLINK-32869 in Echtzeit mit AllMySat

Download on the App Store